www.pogodaiklimat.ru

Погода и климат >> Архив погоды >> Россия >> Якутия >> Теплый Ключ


ПОГОДА в Теплом Ключе

  • Прогноз погоды в Теплом Ключе
  • Монитор погоды в Теплом Ключе

АРХИВ ПОГОДЫ в Теплом Ключе

Время (UTC), дата Ветер
(напр.,м/с)
 
Видим.   Явления Облачность Т
(С)
Тd
(С)
f
(%)
Тe
(С)
Тes
(С)
Комфортность P
(гПа)
Po
(гПа)
Тmin
(С)
Tmax
(С)
R
(мм)
R24
(мм)
S
(см)
06 9.01 штиль 0 50 км 4/0
[Ci fib]
-39.7 -41.7 81 -40 -40 опасность
обморожения
1012.8 971.0
09 9.01 штиль 0 10 км ясно -43.6 -45.7 80 -44 -44 опасность
обморожения
1014.7 972.0 -34.2
12 9.01 штиль 0 10 км ясно -44.3 -47.0 74 -44 -44 опасность
обморожения
1015.6 972.9
15 9.01 штиль 0 10 км ясно -45.2 -47.8 75 -45 -45 опасность
обморожения
1017.3 974.4
18 9.01 СВ 1 10 км ясно -45.8 -48.6 73 -52 -52 опасность
обморожения
1018.9 975.7
21 9.01 В 1 10 км 3/0 2000 м
[Ac trans]
-43.4 -46.3 73 -49 -49 опасность
обморожения
1019.3 976.7 -46.2 33
00 10.01 В 1 20 км 3/0 2000 м
[Ac trans]
-41.1 -43.2 80 -46 -46 опасность
обморожения
1020.4 978.0
03 10.01 штиль 0 10 км слаб. снег 8/0 2000 м
[As op]
-38.0 -40.3 79 -38 -38 опасность
обморожения
1020.8 979.0
06 10.01 штиль 0 10 км слаб. снег 8/0 2000 м
[As op]
-35.7 -38.7 74 -36 -36 опасность
обморожения
1021.3 979.8
09 10.01 В 1 10 км слаб. снег 10/0 2000 м
[As op]
-34.2 -36.5 80 -39 -39 опасность
обморожения
1021.7 980.6 -34.2 0.5
12 10.01 В 1 10 км {снег} 4/0
[Ci fib]
-40.0 -42.8 74 -45 -45 опасность
обморожения
1032.2 980.9
15 10.01 штиль 0 10 км слаб. снег 10/0 2000 м
[As op]
-38.0 -40.9 74 -38 -38 опасность
обморожения
1023.1 981.1
18 10.01 штиль 0 10 км слаб. снег 10/0 2000 м
[As op]
-40.0 -42.8 74 -40 -40 опасность
обморожения
1022.6 980.4
21 10.01 штиль 0 10 км {снег} ясно -43.6 -46.3 74 -44 -44 опасность
обморожения
1023.2 980.2 -43.6 0.4 33
00 11.01 В 1 50 км ясно -45.3 -47.8 76 -51 -51 опасность
обморожения
1023.4 980.3
03 11.01 В 1 50 км ясно -39.9 -42.8 74 -45 -45 опасность
обморожения
1022.6 980.4
06 11.01 В 1 50 км ясно -39.8 -42.2 78 -45 -45 опасность
обморожения
1023.2 980.9
09 11.01 СВ 1 10 км ясно -44.1 -46.4 78 -50 -50 опасность
обморожения
1025.3 982.2 -38.2
12 11.01 В 1 10 км ясно -44.9 -47.8 72 -51 -51 опасность
обморожения
1026.8 983.5
15 11.01 В 1 10 км ясно -44.8 -47.8 72 -51 -51 опасность
обморожения
1027.9 984.5
18 11.01 штиль 0 10 км 6/0 2000 м
[Ac trans]
-44.3 -47.0 74 -44 -44 опасность
обморожения
1029.2 986.0
21 11.01 ЮВ 1 10 км 4/0
[Ac trans]
-44.3 -47.0 74 -50 -50 опасность
обморожения
1030.9 987.4 -45.8 33
00 12.01 В 1 20 км слаб. снег 10/0 2000 м
[]
-42.6 -45.6 72 -48 -48 опасность
обморожения
1032.4 989.2
03 12.01 штиль 0 10 км слаб. снег 10/0
[As op]
-37.1 -39.5 78 -37 -37 опасность
обморожения
1032.6 990.4
06 12.01 В 1 10 км слаб. снег 10/0 2000 м
[As op]
-35.8 -38.1 79 -41 -41 опасность
обморожения
1034.7 992.6
09 12.01 штиль 0 10 км слаб. снег 10/0
[As op]
-38.2 -40.3 80 -38 -38 опасность
обморожения
1036.8 994.3 -35.0 0.3
12 12.01 В 1 10 км слаб. снег 10/0
[Cs]
-38.5 -40.2 84 -44 -44 опасность
обморожения
1038.3 995.6
15 12.01 В 1 10 км {снег} 8/0
[Ci fib]
-41.4 -45.0 68 -47 -47 опасность
обморожения
1039.7 996.6
18 12.01 штиль 0 10 км 8/0
[Ci fib]
-44.5 -47.0 76 -45 -45 опасность
обморожения
1041.3 997.4
21 12.01 В 1 10 км 6/0
[Ci fib]
-44.5 -47.0 76 -50 -50 опасность
обморожения
1041.4 997.5 -45.7 33
00 13.01 СВ 2 20 км ясно -46.5 -49.6 70 -57 -57 опасность
обморожения
1041.3 997.2
03 13.01 штиль 0 50 км 3/0
[As trans]
-41.3 -43.2 82 -41 -41 опасность
обморожения
1039.4 996.2
06 13.01 штиль 0 50 км ясно -41.6 -44.4 74 -42 -42 опасность
обморожения
1038.9 995.7
09 13.01 В 1 10 км ясно -46.3 -48.6 77 -52 -52 опасность
обморожения
1039.2 995.2 -40.2
12 13.01 В 1 10 км ясно -47.4 -50.2 73 -53 -53 опасность
обморожения
1038.2 994.0
15 13.01 В 1 10 км ясно -48.3 -51.2 72 -54 -54 опасность
обморожения
1037.2 992.8
18 13.01 В 1 10 км ясно -48.6 -52.4 64 -55 -55 опасность
обморожения
1036.3 991.8
21 13.01 штиль 0 10 км ясно -49.2 -52.4 69 -49 -49 опасность
обморожения
1035.1 990.6 -49.2 33
00 14.01 В 1 50 км ясно -48.2 -51.2 71 -54 -54 опасность
обморожения
1034.2 989.8
03 14.01 В 1 50 км ясно -44.5 -47.8 69 -50 -50 опасность
обморожения
1032.2 988.7
06 14.01 В 1 50 км 6/0
[Ci fib]
-44.6 -47.8 70 -50 -50 опасность
обморожения
1032.0 988.5
09 14.01 В 1 50 км 6/0
[Ci fib]
-44.6 -47.8 70 -50 -50 опасность
обморожения
1032.0 988.5
12 14.01 В 2 10 км ясно -43.2 -45.0 82 -53 -53 опасность
обморожения
1032.5 989.3
15 14.01 В 1 10 км ясно -42.6 -45.0 77 -48 -48 опасность
обморожения
1031.9 988.7
18 14.01 СВ 1 10 км ясно -43.7 -45.7 80 -49 -49 опасность
обморожения
1031.2 987.9
21 14.01 СВ 1 10 км ясно -44.8 -47.8 72 -51 -51 опасность
обморожения
1030.1 986.7 -45.2 33
00 15.01 штиль 0 50 км 3/0
[Ci fib]
-43.7 -46.3 75 -44 -44 опасность
обморожения
1029.4 986.2
06 15.01 штиль 0 50 км 8/0
[Ci fib]
-38.5 -41.4 74 -39 -39 опасность
обморожения
1026.8 984.5
09 15.01 штиль 0 10 км 10/0
[Cs]
-38.5 -40.8 79 -39 -39 опасность
обморожения
1027.3 985.0 -38.5
12 15.01 штиль 0 10 км 10/0
[Cs]
-38.5 -40.8 79 -39 -39 опасность
обморожения
1027.3 985.0 -38.5
15 15.01 штиль 0 10 км 10/0
[Cs]
-37.6 -39.9 79 -38 -38 опасность
обморожения
1027.7 985.6
18 15.01 штиль 0 10 км 8/0
[Ci fib]
-39.7 -41.7 81 -40 -40 опасность
обморожения
1028.7 986.2
21 15.01 штиль 0 10 км 3/0
[Ci fib]
-44.7 -47.0 78 -45 -45 опасность
обморожения
1029.9 986.5 -44.8 33
00 16.01 СВ 1 50 км 3/0
[Cs]
-44.9 -47.8 72 -51 -51 опасность
обморожения
1031.3 987.8
03 16.01 штиль 0 50 км 3/0
[As trans]
-43.2 -45.0 82 -43 -43 опасность
обморожения
1031.8 988.6

 

Местоположение метеостанции Теплый Ключ (Якутия, Россия): широта 62.78 долгота 136.80 высота над уровнем моря 289 м.

В архиве по умолчанию представлена погода в Теплом Ключе за последнюю неделю. Архивные данные за месяц целиком и за предыдущие месяцы, начиная с января 2011 года, Вы можете получить, выбрав интересующий диапазон дат из раскрывающегося списка и нажав кнопку "Ввод!".


*Определитесь, кто Вы:
робот инопланетянин человек

Внимание! Время в таблицах - всемирное. Для получения местного времени необходимо прибавить поправку, которая равна 9 ч.

Смотрите также архив погоды в соседних городах и на ближайших метеорологических станциях:

Погода в Охотском Перевозе (Якутия, Россия) (121 км)
Погода в Крест-Хальджае (Якутия, Россия) (122 км)
Погода в Томпо (Якутия, Россия) (139 км)
Погода в Восточной (Якутия, Россия) (150 км)
Погода в Ытык-Кюёле (Якутия, Россия) (175 км)
Погода в Чурапче (Якутия, Россия) (232 км)
Погода в Верхоянском Перевозе (Якутия, Россия) (249 км)
Погода в Агаякане (Якутия, Россия) (254 км)
Погода в Иэме (Якутия, Россия) (284 км)
Погода в Юртах (Якутия, Россия) (286 км)

Пояснения к столбцам:

Ветер - указаны скорость ветра в м/с - средняя за 10 мин, порывы в срок и между сроками (в фигурных скобках) и направление, откуда дует ветер: С - северный, СВ - северо-восточный, В - восточный, ЮВ - юго-восточный, Ю - южный, ЮЗ - юго-западный, З - западный, СЗ - северо-западный.
Видимость - горизонтальная дальность видимости в метрах или километрах. При видимости от 1 до 10 км при отсутствии осадков обычно наблюдается дымка, при ухудшении видимости до 1 км и менее - туман. В сухую погоду видимость может ухудшаться дымом, пылью или мглою.
Явления - указаны атмосферные явления, наблюдавшиеся в срок или в последний час перед сроком; фигурными скобками обозначены явления, наблюдавшиеся между сроками (за 1-3 часа до срока); квадратными скобками обозначены град или гололедные отложения с указанием их диаметра в мм.
Облачность - указаны через наклонную черту общая и нижняя облачность в баллах и высота нижней границы облаков в метрах; квадратными скобками обозначены формы облаков: Ci - перистые, Cs - перисто-слоистые, Cc - перисто-кучевые, Ac - высококучевые, As - высокослоистые, Sc - слоисто-кучевые, Ns - слоисто-дождевые, Cu - кучевые, Cb - кучево-дождевые. Подробнее классификацию облаков см. в Атласе облаков (PDF).
T - Температура воздуха - температура, измеренная на высоте 2 м над землей.
Td - Температура точки росы - температура, при понижении до которой содержащийся в воздухе водяной пар достигнет насыщения.
f - Относительная влажность воздуха - влажноcть воздуха, измеренная на высоте 2 м над землей.
Te - Эффективная температура - температура, которую ощущает одетый по сезону человек в тени. Характеристика душности погоды. При расчете учитывается влияние влажности воздуха и скорости ветра на теплоощущения человека.
Tes - Эффективная температура на солнце - температура, которую ощущает человек, с поправкой на солнечный нагрев. Характеристика знойности погоды. Зависит от высоты солнца над горизонтом, облачности и скорости ветра. Ночью, в пасмурную погоду, а также при ветре 12 м/с и более поправка равна нулю.
P - Атмосферное давление - приведенное к уровню моря атмосферное давление.
Po - Атмосферное давление - измеренное на уровне метеостанции атмосферное давление.
Tmin - Минимальная температура - минимум температуры воздуха на высоте 2 м над землей.
Tmax - Максимальная температура - максимум температуры воздуха на высоте 2 м над землей.
R - Количество осадков - Количество выпавших осадков за период времени, мм. При наведении курсора мыши на число - период времени, за который выпало указанное количество осадков.
R24 - Количество осадков - Количество выпавших осадков за 24 часа, мм.
S - Снежный покров - Высота снежного покрова, см. При наведении курсора мыши на число - состояние снежного покрова и степень покрытия местности в баллах.